M1VPN Weather Reports


Display with metric or nautical units.
time (UTC)temp
F
wind
direction
speed
MPH
gust
MPH
rain 1hr
in
rain 24hr
in
rain mn
in
humidity
%
barometer
mb
20260505200004 54 0 0.0 0.0 0.00 0.00 0.00 69 1014.2
20260505194504 54 0 0.0 0.0 0.00 0.00 0.00 68 1014.1
20260505193004 55 0 0.0 0.0 0.00 0.00 0.00 67 1013.9
20260505183005 56 14 2.0 12.0 0.00 0.00 0.00 65 1013.8
20260505180004 57 9 5.0 10.0 0.00 0.00 0.00 64 1013.7
20260505173005 57 34 6.0 14.0 0.00 0.00 0.00 62 1013.8
20260505161504 59 26 7.0 12.0 0.00 0.00 0.00 60 1013.9
20260505153004 60 17 5.0 13.0 0.00 0.00 0.00 58 1013.9
20260505151504 60 38 3.0 12.0 0.00 0.00 0.00 59 1013.9
20260505124503 60 0 0.0 0.0 0.00 0.00 0.00 61 1014.5
20260505123004 60 0 0.0 0.0 0.00 0.00 0.00 64 1014.4
20260505121504 60 0 0.0 0.0 0.00 0.00 0.00 64 1014.5
20260505101504 58 0 0.0 0.0 0.00 0.00 0.00 69 1015.0
20260505091505 55 0 0.0 0.0 0.00 0.00 0.00 75 1015.0
20260505090005 55 0 0.0 0.0 0.00 0.00 0.00 76 1014.9
20260505084505 55 0 0.0 0.0 0.00 0.00 0.00 77 1015.1
20260505081504 54 0 0.0 0.0 0.00 0.00 0.00 83 1015.1
20260505074505 53 0 0.0 0.0 0.00 0.00 0.00 83 1015.0
20260505070005 52 0 0.0 0.0 0.00 0.00 0.00 85 1015.2
20260505063006 52 0 0.0 0.0 0.00 0.00 0.00 87 1015.0
20260505061505 51 0 0.0 0.0 0.00 0.00 0.00 88 1015.1
20260505054505 50 0 0.0 0.0 0.00 0.00 0.00 89 1014.9
20260505033005 51 0 0.0 0.0 0.00 0.00 0.00 90 1014.6
20260505031504 51 0 0.0 0.0 0.00 0.00 0.00 90 1014.6
20260505030005 50 0 0.0 0.0 0.00 0.00 0.00 90 1014.6
20260505024504 50 0 0.0 0.0 0.00 0.00 0.00 89 1014.6
20260505023005 51 0 0.0 0.0 0.00 0.00 0.00 88 1014.6
20260505021504 52 0 0.0 0.0 0.00 0.00 0.00 87 1014.8
20260505020005 52 0 0.0 0.0 0.00 0.00 0.00 86 1015.0
20260505013004 54 0 0.0 0.0 0.00 0.00 0.00 86 1015.3
20260504231504 52 0 0.0 0.0 0.00 0.00 0.00 89 1015.7
20260504224505 53 0 0.0 0.0 0.00 0.00 0.00 89 1015.5
20260504223005 53 0 0.0 0.0 0.00 0.00 0.00 90 1015.5
20260504221505 52 0 0.0 0.0 0.00 0.00 0.00 90 1015.6
20260504220004 51 0 0.0 0.0 0.00 0.00 0.00 90 1015.7
20260504214504 52 0 0.0 0.0 0.00 0.00 0.00 89 1015.5
20260504213004 52 0 0.0 0.0 0.00 0.00 0.00 89 1015.5
20260504211504 53 0 0.0 0.0 0.00 0.00 0.00 88 1015.4
20260504204504 54 0 0.0 0.0 0.00 0.00 0.00 87 1015.4
20260504203004 55 0 0.0 0.0 0.00 0.00 0.00 86 1015.5